Back to catalog

STARLINK-31516

AliveCommunicationsVLEO
NORAD 59221·PAYLOAD·🇺🇸 United States

Launched Mar 11, 2024 from Vandenberg Space Force Base

Loading…

Next Passes (next 24 hours)

TLE

FreshSource: CelesTrak SupGP

Epoch: Sep 14, 2026, 22:40 UTC

1 59221C 24046W   26257.94493056 -.00010687  00000+0 -31584-3 0  2571
2 59221  53.1597 351.7772 0001204  86.2792  95.2779 15.34386902    15

Track STARLINK-31516 in real time with AllMySat

Download on the App Store